User: anonymous   Login
Location: Callao
(39.8979°N, 113.7141°W)
Time: 08:09:11
(UTC+00:00)
Language:

XW-2C - Orbit

View from above orbital plane
View from above orbital plane
View from above satellite
View from above satellite

Ground track
Ground track

The orbit data is extracted from the following two-line orbital elements,

1 40906U 15049H   21130.74982751  .00000512  00000-0  29575-4 0  9998
2 40906  97.4867 133.5774 0013604 324.6862  83.5843 15.16675178311853
Epoch (UTC): 10 May 2021 17:59:45
Eccentricity: 0.0013604
inclination: 97.4867°
perigee height: 506 km
apogee height: 525 km
right ascension of ascending node: 133.5774°
argument of perigee: 324.6862°
revolutions per day: 15.16675178
mean anomaly at epoch: 83.5843°
orbit number at epoch: 31185

The dashed part of the orbit path shows where the satellite is in the earth's shadow,  

DLR